Regional Weather Roundup
Issued by NWS

Home | Current Version | Previous Version | Text Only | Print | Product List | Glossary On
Versions: 1 2 3 4 5 6 7 8 9 10 11 12 13 14 15 16 17 18 19 20 21 22 23 24 25 26 27 28 29 30 31 32 33 34 35 36 37 38 39 40 41 42 43 44 45 46 47 48 49 50
660
ASUS43 KTOP 230059
RWRKS

WEATHER ROUNDUP FOR KANSAS
NATIONAL WEATHER SERVICE GOODLAND KS
800 PM CDT FRI JUL 22 2016

NOTE:  "FAIR" INDICATES FEW OR NO CLOUDS BELOW 12,000 FEET WITH NO
SIGNIFICANT WEATHER AND/OR OBSTRUCTIONS TO VISIBILITY.

KSZ001>006-013>018-027>032-041>047-230200-
NORTHWEST KANSAS

CITY           SKY/WX    TMP DP  RH WIND       PRES   REMARKS
GOODLAND       SUNNY     96  54  24 S13       29.97S
HAYS           PTCLDY    95  61  31 S8        29.90S HX  95
HILL CITY      CLOUDY    92  70  48 E3        29.91F HX  97
RUSSELL        CLEAR     96  59  29 S9        29.89S HX  95
$$

KSZ061>065-074>080-084>089-230200-
SOUTHWEST KANSAS

CITY           SKY/WX    TMP DP  RH WIND       PRES   REMARKS
DODGE CITY     CLEAR     95  59  30 S10       29.95S
ELKHART          N/A     90  61  37 S8          N/A
GARDEN CITY    SUNNY     93  64  38 SE13      29.95R
GREAT BEND     CLEAR     97  63  32 S8        29.90S HX  98
LIBERAL        SUNNY     97  54  23 S16       29.98R
$$

KSZ066>073-081>083-090>101-230200-
SOUTHEAST KANSAS

CITY           SKY/WX    TMP DP  RH WIND       PRES   REMARKS
CHANUTE        CLEAR     90  75  61 SE6       29.95S HX 100
COFFEYVILLE    CLEAR     94  69  44 S6        29.94S HX  99
HUTCHINSON     CLEAR     96  65  35 SE7       29.91S HX  98
NEWTON         CLEAR     93  72  50 SE14      29.94S HX 101
PARSONS        CLEAR     91  74  57 CALM      29.96S HX 100
WICHITA INTL   PTCLDY    95  69  42 SE15      29.91R HX 100
WICHITA JABRA  CLEAR     93  71  48 SE13      29.92S HX 100
WINFIELD       CLEAR     93  70  46 SE9       29.94S HX  99
$$

KSZ007>012-019>026-033>040-048>060-102>105-230200-
NORTHEAST KANSAS

CITY           SKY/WX    TMP DP  RH WIND       PRES   REMARKS
CONCORDIA      CLOUDY    84  69  60 S7        29.88R
EMPORIA        CLEAR     90  74  59 SE8       29.93F HX  99
LAWRENCE       PTCLDY    88  77  69 SE7       29.92F HX 100
MANHATTAN      CLOUDY    89  77  67 CALM      29.87F HX 101
OLATHE IND     CLEAR     91  75  59 SE7       29.96S HX 101
OLATHE EXE     CLEAR     87  75  67 S8        29.97S HX  96
SALINA         PTCLDY    97  71  42 E7        29.88F HX 104
TOPEKA BILLARD PTCLDY    90  74  59 SE9       29.90F HX  99
TOPEKA FORBES  PTCLDY    92  74  55 SE9       29.91F HX 101
$$




USA.gov is the U.S. government's official web portal to all federal, state and local government web resources and services.